Ulemiste current weather conditions

sailwx.info

Wind from 020 at 6 knots

Air temperature -4.0° C
Visibility: greater than 5.4 NM
Dewpoint -8.0° C
Present weather: Light snow.

Last reported at 2016-Dec-06 06:20 UTC.
Time now 2016-Dec-06 08:16 UTC

Location: N 59°25' E 024°50'.
View on Google Maps.

See reports from other nearby stations

  
Tides and Currents Weather Stations Pressure Air Temp Water Temp Dewpoint Dewpoint Depression Visibility Wind Speed Wind Dir Waves Ship Positions
date/time (UTC)wind fromknots sea level pressurealtimeterstation pressurevisibilityair tempwater tempwave heightnotes
2016-Dec-06 07:20 010 6 5.4-4.0 Light snow.
2016-Dec-06 06:50 010 7 5.4-4.0
2016-Dec-06 06:20 020 6 5.4-4.0 Light snow.
2016-Dec-06 05:50 010 6 5.4-4.0 Light snow.
2016-Dec-06 05:20 010 7 5.4-4.0
2016-Dec-06 04:50 030 8 5.4-4.0
2016-Dec-06 04:20 020 9 5.4-4.0
2016-Dec-06 03:50 020 9 5.4-4.0
2016-Dec-06 03:20 020 8 5.4-4.0
2016-Dec-06 02:50 010 9 5.4-4.0
2016-Dec-06 02:20 020 7 5.4-4.0
2016-Dec-06 01:50 020 8 5.4-4.0
2016-Dec-06 01:20 010 8 5.4-3.0
2016-Dec-06 00:50 030 11 5.4-3.0
2016-Dec-06 00:20 010 8 5.4-2.0
2016-Dec-05 23:50 360 9 5.4-2.0
2016-Dec-05 23:20 020 8 5.4-2.0
2016-Dec-05 22:50 360 8 5.4-1.0
2016-Dec-05 22:20 010 9 5.4-1.0
2016-Dec-05 21:50 010 9 5.4-1.0
2016-Dec-05 21:20 010 8 5.4-0.0
2016-Dec-05 20:50 020 8 5.4-0.0
2016-Dec-05 20:20 010 12 5.4 1.0
2016-Dec-05 19:50 350 9 5.4 1.0
2016-Dec-05 19:20 340 11 5.4 1.0
2016-Dec-05 18:50 340 12 5.4 1.0
2016-Dec-05 18:20 340 17 gusting 27 5.4 1.0
2016-Dec-05 17:50 340 15 gusting 26 5.4 2.0
2016-Dec-05 17:20 340 15 gusting 26 5.4 2.0
2016-Dec-05 16:50 340 12 gusting 21 5.4 2.0
2016-Dec-05 16:20 320 18 gusting 27 5.4 3.0
2016-Dec-05 15:50 320 18 5.4 3.0
2016-Dec-05 15:20 300 13 5.4 3.0
2016-Dec-05 14:50 310 14 5.4 3.0
2016-Dec-05 14:20 300 17 5.4 4.0
2016-Dec-05 13:50 300 15 5.4 4.0
2016-Dec-05 13:20 300 14 5.4 4.0
2016-Dec-05 12:50 300 17 5.4 4.0
2016-Dec-05 12:20 300 14 5.4 4.0
2016-Dec-05 11:50 300 15 5.4 4.0
2016-Dec-05 11:20 300 14 5.4 4.0
2016-Dec-05 10:50 300 15 5.4 5.0
2016-Dec-05 10:20 300 14 5.4 5.0
2016-Dec-05 09:50 300 17 5.4 5.0
2016-Dec-05 09:20 290 19 5.4 6.0
2016-Dec-05 08:50 290 20 5.4 6.0
2016-Dec-05 08:20 290 25 gusting 35 5.4 6.0
2016-Dec-05 07:50 280 26 gusting 36 5.4 6.0
2016-Dec-05 07:20 280 26 gusting 35 5.4 6.0
2016-Dec-05 06:50 270 26 gusting 39 5.4 6.0
2016-Dec-05 06:20 270 26 gusting 40 5.4 6.0
2016-Dec-05 05:50 270 25 gusting 38 5.4 6.0
2016-Dec-05 05:20 260 26 5.4 6.0
2016-Dec-05 04:50 270 25 5.4 6.0
2016-Dec-05 04:20 270 22 5.4 6.0
2016-Dec-05 03:50 260 24 5.4 5.0
2016-Dec-05 03:20 260 19 gusting 31 5.4 5.0 Light rain.
2016-Dec-05 02:50 260 20 gusting 29 5.4 5.0
2016-Dec-05 02:20 250 20 5.4 4.0
2016-Dec-05 01:50 260 20 5.4 4.0
2016-Dec-05 01:20 260 20 5.4 4.0
2016-Dec-05 00:50 250 19 5.4 4.0
2016-Dec-05 00:20 250 19 5.4 3.0 Light rain.
2016-Dec-04 23:50 250 20 5.4 3.0
2016-Dec-04 23:20 240 18 1.6 2.0 Drizzle rain.
2016-Dec-04 22:50 240 17 1.6 2.0 Rain.
2016-Dec-04 22:20 240 18 5.4 2.0 Light rain.
2016-Dec-04 21:50 240 18 5.4 2.0
2016-Dec-04 21:20 240 15 5.4 2.0
2016-Dec-04 20:50 230 15 5.4 2.0
2016-Dec-04 20:20 230 14 gusting 25 5.4 1.0
2016-Dec-04 19:50 220 13 5.4-0.0
2016-Dec-04 19:20 220 14 5.4-0.0
2016-Dec-04 18:50 210 13 5.4-0.0
2016-Dec-04 18:20 210 12 5.4-1.0 Light snow.
2016-Dec-04 17:50 210 13 5.4-2.0
2016-Dec-04 17:20 200 13 5.4-3.0
2016-Dec-04 16:50 200 12 5.4-3.0
2016-Dec-04 16:20 190 9 5.4-3.0
2016-Dec-04 15:50 200 8 5.4-4.0
2016-Dec-04 15:20 200 9 5.4-4.0
2016-Dec-04 14:50 190 8 5.4-5.0
2016-Dec-04 14:20 200 6 5.4-5.0
2016-Dec-04 13:50 210 6 5.4-5.0
2016-Dec-04 13:20 220 6 5.4-5.0
2016-Dec-04 12:50 210 6 5.4-4.0
2016-Dec-04 12:20 220 5 5.4-4.0
2016-Dec-04 11:50 230 5 5.4-4.0
2016-Dec-04 11:20 240 6 5.4-3.0
2016-Dec-04 10:50 260 6 5.4-3.0
2016-Dec-04 10:20 270 6 5.4-4.0
2016-Dec-04 09:50 5.4-3.0
2016-Dec-04 09:20 5.4-3.0
2016-Dec-04 08:50 5.4-5.0
2016-Dec-04 08:20 5.4-4.0